This demonstration page uses our WeatherBlox Daily Observations layout. Learn more.

Left ArrowRight Arrow

36.17497, -115.13722

Hourly Observations for November 29, 2021

Temp ( °F °C ) Dew Point ( °F °C ) Humidity (%) Winds ( mph kmh ) Pressure ( in mb ) Visibility ( mi km ) Precip ( " mm )
12:53 am 00:53 Clear 51 10.6 20 -6.7 29 29 WNW 7 11 30.25 1024 10 16 N/A
1:53 am 01:53 Clear 50 10 20 -6.7 30 30 W 3 6 30.25 1024 10 16 N/A
2:53 am 02:53 Clear 50 10 19 -7.2 29 29 NW 6 9 30.24 1024 10 16 N/A
3:53 am 03:53 Clear 50 10 20 -6.7 30 30 W 5 7 30.23 1024 10 16 N/A
4:53 am 04:53 Clear 50 10 20 -6.7 30 30 NW 3 6 30.24 1024 10 16 N/A
5:53 am 05:53 Clear 47 8.3 19 -7.2 33 33 W 5 7 30.25 1025 10 16 N/A
6:53 am 06:53 Sunny 50 10 20 -6.7 30 30 N 6 9 30.26 1025 10 16 N/A
7:53 am 07:53 Sunny 53 11.7 22 -5.6 30 30 W 6 9 30.27 1025 10 16 N/A
8:53 am 08:53 Sunny 63 17.2 23 -5 22 22 N N/A 30.27 1025 10 16 N/A
9:53 am 09:53 Sunny 65 18.3 20 -6.7 18 18 N N/A 30.25 1025 10 16 N/A
10:53 am 10:53 Sunny 68 20 21 -6.1 17 17 N N/A 30.22 1023 10 16 N/A
11:53 am 11:53 Sunny 70 21.1 21 -6.1 16 16 N N/A 30.18 1022 10 16 N/A
12:53 pm 12:53 Sunny 72 22.2 21 -6.1 15 15 SE 3 6 30.15 1021 10 16 N/A
1:53 pm 13:53 Sunny 73 22.8 21 -6.1 14 14 N N/A 30.12 1020 10 16 N/A
2:53 pm 14:53 Sunny 74 23.3 21 -6.1 14 14 N N/A 30.11 1020 10 16 N/A
3:53 pm 15:53 Sunny 73 22.8 21 -6.1 14 14 N N/A 30.11 1020 10 16 N/A
4:53 pm 16:53 Clear 69 20.6 21 -6.1 16 16 N N/A 30.11 1020 10 16 N/A
5:53 pm 17:53 Clear 64 17.8 24 -4.4 22 22 W 6 9 30.12 1020 10 16 N/A
6:53 pm 18:53 Clear 62 16.7 26 -3.3 25 25 WNW 5 7 30.13 1020 10 16 N/A
7:53 pm 19:53 Clear 57 13.9 25 -3.9 29 29 WNW 6 9 30.14 1021 10 16 N/A
8:53 pm 20:53 Clear 56 13.3 24 -4.4 29 29 WNW 8 13 30.14 1021 10 16 N/A
9:53 pm 21:53 Clear 56 13.3 24 -4.4 29 29 WNW 3 6 30.14 1021 10 16 N/A
10:53 pm 22:53 Clear 58 14.4 22 -5.6 25 25 N N/A 30.14 1021 10 16 N/A
11:53 pm 23:53 Clear 56 13.3 20 -6.7 24 24 NNW 8 13 30.14 1021 10 16 N/A

Powered by AerisWeather